Location: Newark
(43.0000°N, 1.6781°W)
Time: 15:00:51
(UTC+00:00)

Vanguard 1 Rocket - All Passes

Search period start: 19 April 2021 00:00
Search period end: 29 April 2021 00:00
Orbit: 653 x 4223 km, 34.3° (Epoch: 18 April)

Date Brightness Start Highest point End Pass type
(mag) Time Alt. Az. Time Alt. Az. Time Alt. Az.
19 Apr - 13:48:18 10° SW 13:52:34 23° S 13:56:07 10° ESE daylight
19 Apr - 16:12:54 10° WSW 16:16:43 28° S 16:20:55 10° SE daylight
19 Apr - 18:37:56 10° SW 18:41:09 16° SSW 18:45:13 10° SSE daylight
20 Apr - 12:37:16 10° SSW 12:41:48 19° SSE 12:45:18 10° ESE daylight
20 Apr - 15:02:00 10° WSW 15:06:09 29° S 15:10:01 10° ESE daylight
20 Apr - 17:26:56 10° WSW 17:30:19 21° SSW 17:34:26 10° SE daylight
21 Apr - 11:26:26 10° SSW 11:30:47 15° SSE 11:34:10 10° SE daylight
21 Apr - 13:50:45 10° SW 13:55:33 27° S 13:59:22 10° ESE daylight
21 Apr - 16:16:01 10° WSW 16:19:41 25° S 16:23:37 10° SE daylight
21 Apr - 18:42:36 10° SW 18:44:08 11° SSW 18:45:48 10° S daylight
22 Apr - 10:16:36 10° S 10:19:27 12° SSE 10:21:53 10° SE daylight
22 Apr - 12:39:12 10° SW 12:44:48 25° S 12:48:50 10° ESE daylight
22 Apr - 15:04:53 10° WSW 15:09:07 29° S 15:12:58 10° ESE daylight
22 Apr - 17:30:34 10° SW 17:33:17 15° SSW 17:36:22 10° SSE daylight
23 Apr - 11:27:32 10° SSW 11:33:48 21° SSE 11:38:10 10° ESE daylight
23 Apr - 13:53:22 10° WSW 13:58:32 31° S 14:02:31 10° ESE daylight
23 Apr - 16:19:13 10° WSW 16:22:37 21° SSW 16:26:09 10° SE daylight
24 Apr - 10:16:05 10° SSW 10:22:28 18° SSE 10:27:04 10° ESE daylight
24 Apr - 12:41:25 10° SW 12:47:48 30° S 12:52:09 10° ESE daylight
24 Apr - 15:07:50 10° WSW 15:12:05 27° S 15:15:51 10° SE daylight
24 Apr - 17:35:08 10° SW 17:36:12 11° SSW 17:37:16 10° S daylight
25 Apr - 09:05:41 10° S 09:10:48 13° SSE 09:14:50 10° SE daylight
25 Apr - 11:29:10 10° SW 11:36:48 28° SSE 11:41:44 10° ESE daylight
25 Apr - 13:56:04 10° WSW 14:01:30 33° S 14:05:35 10° ESE daylight
25 Apr - 16:22:38 10° WSW 16:25:31 17° SSW 16:28:26 10° SSE daylight
26 Apr - 10:16:53 10° SSW 10:25:29 24° SSE 10:31:03 10° ESE daylight
26 Apr - 12:43:47 10° WSW 12:50:47 35° S 12:55:21 10° ESE daylight
26 Apr - 15:10:51 10° WSW 15:15:00 24° SSW 15:18:36 10° SE daylight
27 Apr - 09:05:01 10° SSW 09:13:47 19° SSE 09:19:47 10° ESE daylight
27 Apr - 11:31:05 10° SW 11:39:48 34° S 11:45:05 10° ESE daylight
27 Apr - 13:58:49 10° WSW 14:04:27 33° S 14:08:35 10° SE daylight
27 Apr - 16:26:30 10° SW 16:28:21 12° SSW 16:30:12 10° S daylight
28 Apr - 07:54:27 10° S 08:01:41 15° SSE 08:07:13 10° ESE daylight
28 Apr - 10:18:10 10° SW 10:28:28 31° SSE 10:34:37 10° ESE daylight
28 Apr - 12:46:17 10° WSW 12:53:45 38° S 12:58:29 10° ESE daylight
28 Apr - 15:13:58 10° WSW 15:17:51 21° SSW 15:21:12 10° SSE daylight
